Regional Weather Roundup
Issued by NWS

Home | Current Version | Previous Version | Text Only | Print | Product List | Glossary Off
Versions: 1 2 3 4 5 6 7 8 9 10 11 12 13 14 15 16 17 18 19 20 21 22 23 24 25 26 27 28 29 30 31 32 33 34 35 36 37 38 39 40 41 42 43 44 45 46 47 48 49 50

760
ASUS45 KSLC 290410
RWRUT

UTAH REGIONAL WEATHER ROUNDUP
NATIONAL WEATHER SERVICE SALT LAKE CITY UT
1000 PM MDT SUN MAY 28 2017

UTZ001>011-023>025-290500-

NORTHERN UTAH

CITY           SKY/WX    TMP DP  RH WIND       PRES   REMARKS
BRIGHAM CITY   CLEAR     64  45  50 SE3       30.16R
HILL AFB       CLEAR     63  33  32 E3        30.17S
LOGAN          CLEAR     61  41  47 E5        30.17R
OGDEN          CLEAR     63  33  32 CALM      30.15R
SALT LAKE CITY CLEAR     66  45  46 N8        30.14R
TOOELE VALLEY  CLEAR     52  43  71 S5        30.17R
WENDOVER       CLEAR     68  29  23 N5        30.16R
HEBER CITY     CLEAR     54  37  54 SE5       30.20R
WEST JORDAN    CLEAR     64  43  47 W7        30.17S

$$

UTZ011>015-024>027-290500-

CENTRAL/NORTHEAST UTAH

CITY           SKY/WX    TMP DP  RH WIND       PRES   REMARKS
PROVO AIRPORT  CLEAR     65  44  46 NW13      30.16R
MOAB/CANYONLAN CLEAR     64  13  13 W6        30.10R
DELTA          CLEAR     63  25  23 N7        30.15R
PRICE          CLOUDY    63  29  27 N9        30.20R
ROOSEVELT      CLEAR     61  34  36 NW3       30.20S
VERNAL         CLEAR     62  36  37 NW8       30.18R

$$

UTZ013>016-019>022-027-290500-

SOUTHERN UTAH

CITY           SKY/WX    TMP DP  RH WIND       PRES   REMARKS
BRYCE CANYON   PTCLDY    56  22  26 W8        30.29R
CEDAR CITY     CLEAR     59  20  22 NE7       30.17R
MILFORD        CLEAR     58  18  21 N7        30.14R
ST GEORGE      CLEAR     82  24  12 N6        29.96R
HANKSVILLE     PTCLDY    66  14  13 NE8       30.11S
BLANDING       CLEAR     55  22  27 N7        30.25S

$$

REGIONAL REPORTS     COLORADO/ARIZONA

CITY           SKY/WX    TMP DP  RH WIND       PRES   REMARKS
CRAIG, CO      CLEAR     46  36  68 CALM      30.26R
GRAND JUNCTION CLEAR     65  24  21 N7        30.13R
RIFLE, CO      CLEAR     64  27  24 W7        30.20R
MONTROSE, CO   CLEAR     57  24  28 SE9       30.21R
CORTEZ, CO     CLEAR     51  31  46 E7        30.19R
COLORADO CITY    N/A     70  27  19 CALM      30.12R
PAGE, AZ       CLEAR     73  19  13 SE3       30.06S
GRAND CANYON   PTCLDY    50  25  37 CALM      30.21S
KINGMAN, AZ    CLEAR     71  17  12 MISG      29.99R
FLAGSTAFF, AZ  PTCLDY    56  22  26 CALM      30.22R

$$

REGIONAL REPORTS    NEVADA/IDAHO/WYOMING

CITY           SKY/WX    TMP DP  RH WIND       PRES   REMARKS
LAS VEGAS, NV  CLEAR     89  11   5 NW5       29.89S
ELY, NY        CLEAR     57  22  25 N8        30.21R
ELKO, NV       CLEAR     63  33  32 NW7       30.16R
POCATELLO, ID  CLEAR     53  41  63 S6        30.18S
BURLEY, ID     CLEAR     59  43  55 CALM      30.15R
FORT BRIDGER,    N/A     57  27  31 W3        30.32R
EVANSTON, WY   CLEAR     54  27  35 N8        30.30R
ROCK SPRINGS,  CLEAR     58  22  24 N5        30.27R
KEMMERER, WY     N/A     50  34  53 NW8       30.31R

$$




USA.gov is the U.S. government's official web portal to all federal, state and local government web resources and services.